Volver al catálogo

STARLINK-30274

ActivoComunicacionesVLEO
NORAD 57672·PAYLOAD·🇺🇸 United States

Lanzado Aug 22, 2023 desde Vandenberg Space Force Base

Loading…

Próximos Pases (próximas 24 horas)

TLE

ActualizadoSource: CelesTrak SupGP

Época: Sep 14, 2026, 20:43 UTC

1 57672C 23124K   26257.86368056  .00045823  00000+0  13545-2 0  2571
2 57672  53.1585  45.7352 0001264  82.9969 344.4311 15.34353755    10

Sigue STARLINK-30274 en tiempo real con AllMySat

Download on the App Store